Regional Weather Roundup
Issued by NWS

Home | Current Version | Previous Version | Graphics & Text | Print | Product List | Glossary On
Versions: 1 2 3 4 5 6 7 8 9 10 11 12 13 14 15 16 17 18 19 20 21 22 23 24 25 26 27 28 29 30 31 32 33 34 35 36 37 38 39 40 41 42 43 44 45 46 47 48 49 50
000
ASUS43 KLOT 161604
RWRIL

ILLINOIS REGIONAL WEATHER ROUNDUP
NATIONAL WEATHER SERVICE CHICAGO/ROMEOVILLE IL
1100 AM CDT MON OCT 16 2017

NOTE: "FAIR" INDICATES FEW OR NO CLOUDS BELOW 12,000 FEET WITH NO
SIGNIFICANT WEATHER AND/OR OBSTRUCTIONS TO VISIBILITY.

* THESE STATIONS ARE NOT UNDER NWS QUALITY CONTROL. THEY ALSO MAY NOT
  REPORT WEATHER SUCH AS PRECIPITATION OR FOG.

ILZ001-002-007-009-015-016-024-161700-
NORTHWEST ILLINOIS

CITY           SKY/WX    TMP DP  RH WIND       PRES   REMARKS
MOLINE         SUNNY     56  42  59 VRB3      30.33F
STERLING*      SUNNY     53  43  68 SW5         N/A
SAVANNA*       SUNNY     50  41  70 CALM      30.33S
$$

ILZ003-004-008-010-011-017-018-161700-
NORTH CENTRAL ILLINOIS

CITY           SKY/WX    TMP DP  RH WIND       PRES   REMARKS
ROCKFORD       SUNNY     51  41  68 SW3       30.32F
FREEPORT*      SUNNY     52  40  64 W3        30.33S
ROCHELLE*      SUNNY     52  41  67 W7        30.32F
DE KALB*       SUNNY     54  41  61 W9        30.32S
PERU*          SUNNY     54  40  59 SW8       30.34S
$$

ILZ005-006-012>014-019>023-161700-
NORTHEAST ILLINOIS

CITY           SKY/WX    TMP DP  RH WIND       PRES   REMARKS
CHICAGO-OHARE  SUNNY     55  39  54 SW7       30.31S
CHICAGO-MIDWAY SUNNY     55  42  61 W9        30.32S
AURORA         SUNNY     55  42  61 SW10      30.33R
LANSING*       SUNNY     55  43  63 W9        30.33S
JOLIET*        SUNNY     56  43  60 SW6       30.33S
WAUKEGAN       SUNNY     55  39  54 VRB5      30.29S
DUPAGE AIRPORT SUNNY     55  42  61 SW8       30.31S
KANKAKEE*      SUNNY     56  38  50 W9        30.36S
WHEELING       SUNNY     56  39  53 SW8       30.32S
MORRIS*        SUNNY     56  39  52 W9        30.33S
$$

LMZ740>746-161700-
SOUTHERN LAKE MICHIGAN

STATION/POSITION SKY/WX   TEMP    WIND        PRES    VSBY  WAVE
                          AIR SEA DIR/SP/G                  HT/PER
                          (F)     (DEG/KT/KT) (MB)    (MI)  (FT/S)
SOUTHERN BUOY              53 62  290/ 10/ 12 1026.0          2/ 4
WILMETTE HARBOR            53 57  230/  6/  6   N/A           2/ 6
HARRISON CRIB              54     250/  7/ 10   N/A
BURNHAM HARBOR             54     190/  6/ 11   N/A
CALUMET HARBOR             54     220/  7/  9 1026.0R
BURNS HARBOR               53     280/  9/ 11 1027.4S
MICHIGAN CITY              51     240/ 15/ 17   N/A
MICHIGAN CITY 6N           52 57  260/ 12/ 14   N/A           4/ 5
ST. JOSEPH                 54 56  290/ 12/ 14 1026.9R         4/ 4
$$

ILZ025>027-034>036-040-047-049-050-058-095>099-161700-
WEST-CENTRAL ILLINOIS

CITY           SKY/WX    TMP DP  RH WIND       PRES   REMARKS
QUINCY         SUNNY     56  41  57 SW9       30.37S
GALESBURG*     SUNNY     55  42  60 W5        30.36F
MACOMB*        SUNNY     56  41  56 W7        30.38S
JACKSONVILLE*  SUNNY     58  39  49 W8        30.38S
PITTSFIELD*    SUNNY     59  38  46 W10       30.39S
$$

ILZ028>032-037-038-041>044-048-051>054-059>061-161700-
CENTRAL ILLINOIS

CITY           SKY/WX    TMP DP  RH WIND       PRES   REMARKS
PONTIAC        SUNNY     57  42  57 SW12      30.36S
BLOOMINGTON    SUNNY     55  42  61 SW10      30.37R
DECATUR        SUNNY     56  40  55 W8        30.38F
PEORIA         SUNNY     55  43  63 SW7       30.36R
LACON*         SUNNY     56  40  53 W6        30.34S
LINCOLN*       SUNNY     58  41  53 SW5       30.37S
SPRINGFIELD    SUNNY     59  41  51 VRB5      30.38F
TAYLORVILLE    SUNNY     57  40  52 SW5       30.38F
$$

ILZ033-039-045-046-055>057-062-063-161700-
EAST-CENTRAL ILLINOIS

CITY           SKY/WX    TMP DP  RH WIND       PRES   REMARKS
CHAMPAIGN      SUNNY     57  37  47 W6        30.37F
DANVILLE*      SUNNY     55  36  48 NW5       30.34F
RANTOUL*       SUNNY     58  42  55 W7        30.36F
MATTOON        SUNNY     56  39  53 VRB7      30.37F
PARIS*         SUNNY     56  39  53 W5        30.38F
$$

ILZ079-100>102-161700-
SOUTHWEST ILLINOIS

CITY           SKY/WX    TMP DP  RH WIND       PRES   REMARKS
ALTON          SUNNY     55  45  67 CALM      30.41F
BELLEVILLE     SUNNY     57  40  52 CALM      30.40F
CAHOKIA*       SUNNY     60  43  53 CALM      30.41F
SPARTA*        SUNNY     56  41  57 NW5       30.43S
$$

ILZ064>066-069>071-074>076-080>082-084>086-088>090-092>094-161700-
SOUTH-CENTRAL ILLINOIS

CITY           SKY/WX    TMP DP  RH WIND       PRES   REMARKS
CARBONDALE     SUNNY     58  41  53 N9        30.41S
EFFINGHAM*     SUNNY     57  39  50 NW6       30.41S
MARION         SUNNY     57  43  58 N7        30.42R
MT. VERNON     SUNNY     58  40  51 N7        30.41S
METROPOLIS*    SUNNY     58  41  54 NE6       30.41R
$$

ILZ067-068-072-073-078-083-087-091-161700-
SOUTHEAST ILLINOIS

CITY           SKY/WX    TMP DP  RH WIND       PRES   REMARKS
LAWRENCEVILLE  SUNNY    N/A N/A N/A NE3       30.39S
FLORA*         SUNNY     57  40  53 N6        30.40F
FAIRFIELD*     SUNNY     57  38  48 NE5       30.39F
HARRISBURG*    SUNNY     56  42  58 N8        30.41S
ROBINSON*      SUNNY     55  40  58 CALM      30.40S
CARMI*         SUNNY     56  40  53 N8        30.40S
$$

ABBREVIATIONS USED IN REMARKS
   TC - TEMPERATURE IN CELSIUS
  WCI - WIND CHILL INDEX
   HX - HEAT INDEX
  VSB - VISIBILITY
$$





USA.gov is the U.S. government's official web portal to all federal, state and local government web resources and services.